Location: Augustenthal
(51.7167°N, 10.2833°E)
Time: 03:55:22
(UTC+00:00)

ATLAS CENTAUR R/B - Pass Details

Date: 18 May 2021
Orbit: 472 x 671 km, 64.6° (Epoch: 13 June)

Event Time Altitude Azimuth Distance (km) Brightness Sun altitude
Exits shadow 20:36:18 14° 119° (ESE) 1,453 2.9 -10.5°
Maximum altitude 20:36:38 14° 113° (ESE) 1,449 2.9 -10.6°
Drops below altitude 10° 20:38:36 10° 81° (E) 1,694 3.5 -10.8°
Sets 20:41:39 0° 56° (NE) 2,620 4.8 -11.1°
